Regional Weather Roundup
Issued by NWS

Home | Current Version | Previous Version | Graphics & Text | Print | Product List | Glossary On
Versions: 1 2 3 4 5 6 7 8 9 10 11 12 13 14 15 16 17 18 19 20 21 22 23 24 25 26 27 28 29 30 31 32 33 34 35 36 37 38 39 40 41 42 43 44 45 46 47 48 49 50
000
ASUS43 KMPX 221910
RWRMN
WEATHER ROUNDUP FOR MINNESOTA
NATIONAL WEATHER SERVICE TWIN CITIES/CHANHASSEN MN
200 PM CDT FRI SEP 22 2017


NOTE: "FAIR" INDICATES FEW OR NO CLOUDS BELOW 12,000 FEET WITH NO
SIGNIFICANT WEATHER AND/OR OBSTRUCTIONS TO VISIBILITY. N/A MEANS
CURRENT SKY AND/OR WEATHER CONDITIONS ARE NOT AVAILABLE.

MNZ060>063-068>070-222000-
   Twin Cities Metro

CITY           SKY/WX    TMP DP  RH WIND       PRES   REMARKS
TWIN CITIES    MOSUNNY   91  72  53 S15G23    29.81F HX  98
ST PAUL        SUNNY     90  74  59 SE17      29.81F HX  99
CRYSTAL        SUNNY     89  69  51 S14       29.80F HX  93
BLAINE         MOSUNNY   91  72  52 SE16      29.81F HX  98
LAKEVILLE      SUNNY     90  72  55 S10G17    29.83S HX  96
EDEN PRAIRIE   SUNNY     90  72  55 S15       29.80F HX  97
SOUTH ST PAUL  SUNNY     91  69  48 SE12G18   29.82F HAZE    HX  95
LAKE ELMO      FAIR      88  73  62 S13       29.84F HX  96
$$
MNZ001>005-007-008-013>017-022>024-027-028-222000-
   Northwest Minnesota

CITY           SKY/WX    TMP DP  RH WIND       PRES   REMARKS
BEMIDJI        CLOUDY    76  68  76 SE9G16    29.75F
HALLOCK          N/A     72  54  53 NE14      29.76S
ROSEAU         MOSUNNY   72  61  68 E18G24    29.78S
WARROAD        MOSUNNY   68  61  77 NE15G23   29.80F
THIEF RVR FALL SUNNY     77  66  68 E14G21    29.72F
CROOKSTON      SUNNY     77  64  65 E9        29.70F
FOSSTON        MOSUNNY   82  66  57 SE13      29.71F
DETROIT LAKES  CLOUDY    79  72  78 SE10      29.71F
MOORHEAD       MOSUNNY   84  72  65 S15       29.65F
PARK RAPIDS    CLOUDY    79  72  79 SE14      29.74F
MAHNOMEN       CLOUDY    79  70  74 SE10      29.70F
$$
MNZ006-009>011-018-025>026-222000-
   North Central Minnesota

CITY           SKY/WX    TMP DP  RH WIND       PRES   REMARKS
BAUDETTE       CLOUDY    70  65  84 E14       29.79F
FLAG ISLAND    MOSUNNY   66  55  68 NE12      29.81F
INTL FALLS     CLOUDY    73  64  73 NE9       29.82F
WASKISH        PTSUNNY   81  66  61 E9        29.75F
BIG FORK       SUNNY     81  64  57 SE7       29.80F
LONGVILLE      CLOUDY    75  70  83 SE9       29.79F
GRAND RAPIDS   CLOUDY    73  67  81 SE8       29.84F
CRANE LAKE     SUNNY     77  64  65 W3        29.84F
ORR            SUNNY     81  57  44 S8        29.81S
COOK           SUNNY     79  63  57 SE8       29.85S
WALKER         CLOUDY    75  69  82 SE8       29.76F
$$
MNZ012-019>021-037-222000-
   Northeast Minnesota

CITY           SKY/WX    TMP DP  RH WIND       PRES   REMARKS
DULUTH         CLOUDY    70  64  81 S10       29.86S
ELY            CLOUDY    75  61  60 SE5       29.87F
HIBBING        CLOUDY    74  65  73 VRB7G18   29.85S
EVELETH        MOSUNNY   78  64  62 S12G20    29.87F
DULUTH HARBOR  CLOUDY    70  66  88 W3        29.85S
TWO HARBORS    CLOUDY    73  66  78 CALM      29.85S
GRAND MARAIS     N/A     67  62  84 W3        29.86R
G MARAIS ARPRT CLOUDY    70  59  68 S6        29.92R
$$
MNZ029>031-032-039>041-046>048-054>057-064-222000-
   West Central Minnesota

CITY           SKY/WX    TMP DP  RH WIND       PRES   REMARKS
FERGUS FALLS   PTSUNNY   81  72  74 S20       29.68S
WHEATON        MOSUNNY   86  70  58 SE16      29.68F HX  90
MORRIS         MOSUNNY   84  72  65 S20       29.69F
ALEXANDRIA     PTSUNNY   82  72  71 SE16G28   29.75F
ELBOW LAKE     CLOUDY    79  73  81 E14       29.72S HAZE
WADENA         MOSUNNY   81  72  74 S16       29.73F
GLENWOOD       SUNNY     81  73  78 SE16      29.75F
APPLETON       MOSUNNY   90  68  48 S12G21    29.69S HX  93
BENSON         MOSUNNY   88  72  58 S17G23    29.71F HX  94
ORTONVILLE     PTSUNNY   86  70  58 N14G21    29.68F HX  90
MADISON        SUNNY     91  72  52 S15       29.69S HX  98
WILLMAR        FAIR      88  73  62 SE15G21   29.75F HX  96
$$
MNZ033>034-036-042>043-049>051-058-059-222000-
   Central Minnesota

CITY           SKY/WX    TMP DP  RH WIND       PRES   REMARKS
ST CLOUD       PTSUNNY   83  74  74 SE13      29.79F
SAUK CENTRE    CLOUDY    80  73  79 SE10G17   29.77F
PAYNESVILLE    MOSUNNY   83  72  69 SE10      29.78S
AITKIN         CLOUDY    75  70  83 SE10G17   29.80F
PINE RIVER     CLOUDY    75  68  78 SE14      29.80F
BRAINERD       CLOUDY    78  72  81 SE13G21   29.79F
STAPLES        PTSUNNY   81  72  74 S14G20    29.75S
LITTLE FALLS   MOSUNNY   81  66  61 SE16G23   29.79S
LITCHFIELD     SUNNY     88  73  62 SE12G18   29.77F HX  96
BUFFALO        SUNNY     87  69  55 SE12G18   29.81F HX  91
MAPLE LAKE     MOSUNNY   87  75  67 SE5       29.81F HX  96
HUTCHINSON     PTSUNNY   89  74  62 S7        29.79F HX  98
$$
MNZ037-044-045-052-053-222000-
   East Central Minnesota

CITY           SKY/WX    TMP DP  RH WIND       PRES   REMARKS
PRINCETON      SUNNY     86  73  66 SE13      29.81F HX  93
MORA           MOSUNNY   82  70  65 S12       29.84F
CAMBRIDGE      MOSUNNY   86  72  62 S7        29.83F HX  92
RUSH CITY      SUNNY     85  71  63 S10G16    29.84F HX  90
MOOSE LAKE     MOSUNNY   75  68  78 S3        29.84S
HINCKLEY       MOCLDY    81  73  78 E6        29.84F
CLOQUET        CLOUDY    73  64  73 SE8       29.85F
MCGREGOR       CLOUDY    73  70  88 SE9       29.84S
$$
MNZ071>073-080-081-089-090-097-098-222000-
   Southwest Minnesota

CITY           SKY/WX    TMP DP  RH WIND       PRES   REMARKS
MONTEVIDEO     SUNNY     91  70  49 S15       29.70F HX  97
GRANITE FALLS  SUNNY     91  73  55 SE16      29.73F HX  99
CANBY          SUNNY     88  69  53 S14G23    29.71S HX  92
MARSHALL       SUNNY     91  71  51 S24       29.70F HX  97
REDWOOD FALLS  LGT RAIN  92  69  47 S20G28    29.74S HX  97
OLIVIA         SUNNY     90  70  51 S15G23    29.74F HX  95
PIPESTONE      SUNNY     88  70  55 S20G29    29.74F HX  92
WINDOM         SUNNY     90  66  45 S17G24    29.78F HX  92
WORTHINGTON    SUNNY     89  70  53 S22G29    29.78F HX  94
JACKSON        SUNNY     90  68  48 S18G26    29.81S HX  93
TRACY          SUNNY     90  72  55 S18G26    29.74F HX  96
SLAYTON        SUNNY     89  69  51 S20G29    29.77S HX  93
$$
MNZ065>067-074>077-082>085-091>093-222000-
   South Central Minnesota

CITY           SKY/WX    TMP DP  RH WIND       PRES   REMARKS
MANKATO        SUNNY     90  71  53 S15G24    29.80F HX  96
NEW ULM        SUNNY     90  70  51 S20G25    29.77S HX  95
ST JAMES       SUNNY     91  70  49 S20G28    29.79F HX  97
FAIRMONT       SUNNY     91  71  51 S21G32    29.81S HX  97
GLENCOE        SUNNY     91  75  60 S10G17    29.79S HX 101
FARIBAULT      SUNNY     90  72  55 S9G18     29.84F HX  96
OWATONNA       MOSUNNY   91  72  52 SE21G28   29.84F HX  98
WASECA         SUNNY     90  70  51 S15G25    29.85F HX  95
ALBERT LEA     SUNNY     91  70  49 S21G28    29.87S HX  97
$$
MNZ078>079-086>088-094>096-222000-
   Southeast Minnesota

CITY           SKY/WX    TMP DP  RH WIND       PRES   REMARKS
ROCHESTER      SUNNY     88  68  51 S18G29    29.90F HX  91
RED WING       SUNNY     93  63  36 S15G21    29.83F HX  94
STANTON        MOSUNNY   90  70  52 S18G25    29.82S HX  95
DODGE CENTER   CLOUDY    91  66  43 S22G29    29.89S HX  94
WINONA         SUNNY     95  66  38 S9G18     29.89F HX  98
AUSTIN         SUNNY     90  68  48 S14G21    29.89S HX  93
PRESTON        SUNNY     89  63  41 S20G28    29.93F
$$
ABBREVIATIONS USED IN REMARKS
   TC - TEMPERATURES IN CELSIUS
  WCI - WIND CHILL INDEX
   HX - HEAT INDEX
  VSB - VISIBILITY
$$




USA.gov is the U.S. government's official web portal to all federal, state and local government web resources and services.